Time,TemperatureF,DewpointF,PressureIn,WindDirection,WindDirectionDegrees,WindSpeedMPH,WindSpeedGustMPH,Humidity,HourlyPrecipIn,Conditions,Clouds,dailyrainin,SoftwareType,DateUTC
2013-01-20 00:00:00,29.4,23.7,29.84,SW,218,2.2,3.5,79,0.00,RA,,0.00,WeatherDisplay:10.37,2013-01-20 05:00:00,
2013-01-20 00:01:00,29.4,23.7,29.84,SSW,196,2.4,3.5,79,0.00,OVC,,0.00,WeatherDisplay:10.37,2013-01-20 05:01:00,
2013-01-20 00:04:00,29.5,23.5,29.84,SSW,196,1.7,4.6,78,0.00,OVC,,0.00,WeatherDisplay:10.37,2013-01-20 05:04:00,
2013-01-20 00:09:00,30.1,23.8,29.84,SE,142,3.4,12.0,77,0.00,OVC,,0.00,WeatherDisplay:10.37,2013-01-20 05:09:00,
2013-01-20 00:14:00,30.7,24.3,29.82,SSW,192,3.4,6.9,77,0.00,OVC,,0.00,WeatherDisplay:10.37,2013-01-20 05:14:00,
2013-01-20 00:19:00,31.5,24.5,29.82,SSW,196,2.7,4.6,75,0.00,OVC,,0.00,WeatherDisplay:10.37,2013-01-20 05:19:00,
2013-01-20 00:24:00,31.9,24.9,29.82,SSW,196,2.3,3.5,75,0.00,OVC,,0.00,WeatherDisplay:10.37,2013-01-20 05:24:00,
2013-01-20 00:29:00,32.2,24.8,29.82,SSW,210,1.8,4.6,74,0.00,OVC,,0.00,WeatherDisplay:10.37,2013-01-20 05:29:00,
2013-01-20 00:34:00,32.4,25.0,29.82,SSW,201,1.5,6.9,74,0.00,OVC,,0.00,WeatherDisplay:10.37,2013-01-20 05:34:00,
2013-01-20 00:39:00,32.6,25.2,29.82,SSE,153,0.7,2.3,74,0.00,OVC,,0.00,WeatherDisplay:10.37,2013-01-20 05:39:00,
2013-01-20 00:44:00,32.8,25.1,29.82,SW,217,3.2,6.0,73,0.00,OVC,,0.00,WeatherDisplay:10.37,2013-01-20 05:44:00,
2013-01-20 00:49:00,32.9,25.2,29.82,South,173,2.7,4.6,73,0.00,OVC,,0.00,WeatherDisplay:10.37,2013-01-20 05:49:00,
2013-01-20 00:54:00,33.1,25.1,29.82,SSW,199,2.7,3.5,72,0.00,OVC,,0.00,WeatherDisplay:10.37,2013-01-20 05:54:00,
2013-01-20 00:59:00,33.2,25.1,29.82,SSW,203,2.5,3.5,72,0.00,OVC,,0.00,WeatherDisplay:10.37,2013-01-20 05:59:00,
2013-01-20 01:04:00,33.4,25.3,29.81,SSW,206,1.7,5.8,72,0.00,OVC,,0.00,WeatherDisplay:10.37,2013-01-20 06:04:00,
2013-01-20 01:09:00,33.5,25.4,29.81,SSW,209,0.4,3.0,72,0.00,OVC,,0.00,WeatherDisplay:10.37,2013-01-20 06:09:00,
2013-01-20 01:14:00,33.7,25.6,29.82,WSW,247,0.1,1.1,72,0.00,OVC,,0.00,WeatherDisplay:10.37,2013-01-20 06:14:00,
2013-01-20 01:19:00,33.8,25.7,29.82,SSW,196,0.6,2.3,72,0.00,OVC,,0.00,WeatherDisplay:10.37,2013-01-20 06:19:00,
2013-01-20 01:24:00,33.8,25.7,29.82,SSW,196,1.1,2.3,72,0.00,OVC,,0.00,WeatherDisplay:10.37,2013-01-20 06:24:00,
2013-01-20 01:29:00,34.0,25.9,29.82,SSW,197,0.2,1.1,72,0.00,OVC,,0.00,WeatherDisplay:10.37,2013-01-20 06:29:00,
2013-01-20 01:34:00,34.0,25.9,29.82,SSW,197,0.0,0.0,72,0.00,OVC,,0.00,WeatherDisplay:10.37,2013-01-20 06:34:00,
2013-01-20 01:39:00,34.1,26.0,29.82,SSW,196,0.6,1.1,72,0.00,OVC,,0.00,WeatherDisplay:10.37,2013-01-20 06:39:00,
2013-01-20 01:44:00,34.1,26.0,29.81,SSW,197,0.9,1.1,72,0.00,OVC,,0.00,WeatherDisplay:10.37,2013-01-20 06:44:00,
2013-01-20 01:49:00,34.1,26.3,29.81,SE,131,2.0,3.5,73,0.00,OVC,,0.00,WeatherDisplay:10.37,2013-01-20 06:49:00,
2013-01-20 01:54:00,34.0,26.6,29.80,SE,129,0.8,2.3,74,0.00,OVC,,0.00,WeatherDisplay:10.37,2013-01-20 06:54:00,
2013-01-20 01:59:00,34.0,26.6,29.80,SE,139,1.8,3.0,74,0.00,OVC,,0.00,WeatherDisplay:10.37,2013-01-20 06:59:00,
2013-01-20 02:04:00,34.0,26.9,29.79,SE,142,2.8,3.5,75,0.00,OVC,,0.00,WeatherDisplay:10.37,2013-01-20 07:04:00,
2013-01-20 02:09:00,34.0,26.9,29.79,SSE,159,2.1,3.5,75,0.00,OVC,,0.00,WeatherDisplay:10.37,2013-01-20 07:09:00,
2013-01-20 02:14:00,34.0,26.9,29.78,South,183,2.6,3.5,75,0.00,OVC,,0.00,WeatherDisplay:10.37,2013-01-20 07:14:00,
2013-01-20 02:19:00,34.0,27.2,29.78,South,190,3.0,4.6,76,0.00,OVC,,0.00,WeatherDisplay:10.37,2013-01-20 07:19:00,
2013-01-20 02:24:00,34.1,27.3,29.77,SSW,201,2.8,6.0,76,0.00,OVC,,0.00,WeatherDisplay:10.37,2013-01-20 07:24:00,
2013-01-20 02:29:00,34.3,27.5,29.77,SW,225,1.5,2.3,76,0.00,OVC,,0.00,WeatherDisplay:10.37,2013-01-20 07:29:00,
2013-01-20 02:34:00,34.3,27.2,29.77,WSW,255,2.6,4.6,75,0.00,OVC,,0.00,WeatherDisplay:10.37,2013-01-20 07:34:00,
2013-01-20 02:39:00,34.3,27.2,29.77,West,276,1.9,3.5,75,0.00,OVC,,0.00,WeatherDisplay:10.37,2013-01-20 07:39:00,
2013-01-20 02:44:00,34.3,27.2,29.77,West,276,0.6,1.1,75,0.00,OVC,,0.00,WeatherDisplay:10.37,2013-01-20 07:44:00,
2013-01-20 02:49:00,34.1,27.0,29.77,West,276,0.3,1.1,75,0.00,OVC,,0.00,WeatherDisplay:10.37,2013-01-20 07:49:00,
2013-01-20 02:54:00,34.1,27.0,29.76,West,276,0.1,1.0,75,0.00,OVC,,0.00,WeatherDisplay:10.37,2013-01-20 07:54:00,
2013-01-20 02:59:00,33.8,26.7,29.76,SW,224,1.3,2.3,75,0.00,OVC,,0.00,WeatherDisplay:10.37,2013-01-20 07:59:00,
2013-01-20 03:04:00,33.7,26.6,29.76,SW,223,0.9,2.3,75,0.00,BKN,,0.00,WeatherDisplay:10.37,2013-01-20 08:04:00,
2013-01-20 03:09:00,33.4,26.3,29.76,SW,225,0.0,0.0,75,0.00,BKN,,0.00,WeatherDisplay:10.37,2013-01-20 08:09:00,
2013-01-20 03:14:00,33.1,26.4,29.74,SSW,203,1.2,2.3,76,0.00,BKN,,0.00,WeatherDisplay:10.37,2013-01-20 08:14:00,
2013-01-20 03:19:00,32.8,26.4,29.74,South,190,0.7,2.0,77,0.00,BKN,,0.00,WeatherDisplay:10.37,2013-01-20 08:19:00,
2013-01-20 03:24:00,32.6,26.2,29.74,SSW,197,0.0,1.1,77,0.00,BKN,,0.00,WeatherDisplay:10.37,2013-01-20 08:24:00,
2013-01-20 03:29:00,32.4,26.0,29.73,SSW,196,0.7,2.3,77,0.00,BKN,,0.00,WeatherDisplay:10.37,2013-01-20 08:29:00,
2013-01-20 03:34:00,32.1,25.7,29.73,South,182,1.5,2.3,77,0.00,BKN,,0.00,WeatherDisplay:10.37,2013-01-20 08:34:00,
2013-01-20 03:39:00,31.9,25.8,29.73,SSE,165,1.0,2.3,78,0.00,BKN,,0.00,WeatherDisplay:10.37,2013-01-20 08:39:00,
2013-01-20 03:44:00,31.8,26.0,29.73,South,169,0.7,2.3,79,0.00,BKN,,0.00,WeatherDisplay:10.37,2013-01-20 08:44:00,
2013-01-20 03:49:00,31.6,26.1,29.73,South,186,1.1,4.6,80,0.00,BKN,,0.00,WeatherDisplay:10.37,2013-01-20 08:49:00,
2013-01-20 03:54:00,31.5,25.7,29.73,SSW,197,1.5,2.3,79,0.00,BKN,,0.00,WeatherDisplay:10.37,2013-01-20 08:54:00,
2013-01-20 03:59:00,31.3,25.8,29.72,SSW,196,2.2,3.5,80,0.00,BKN,,0.00,WeatherDisplay:10.37,2013-01-20 08:59:00,
2013-01-20 04:04:00,31.2,25.7,29.72,SSW,197,1.0,2.3,80,0.00,BKN,,0.00,WeatherDisplay:10.37,2013-01-20 09:04:00,
2013-01-20 04:09:00,30.9,25.5,29.72,SSW,193,0.6,2.3,80,0.00,BKN,,0.00,WeatherDisplay:10.37,2013-01-20 09:09:00,
2013-01-20 04:14:00,30.7,25.6,29.71,SSW,193,0.7,2.3,81,0.00,BKN,,0.00,WeatherDisplay:10.37,2013-01-20 09:14:00,
2013-01-20 04:19:00,30.6,25.5,29.71,WSW,241,1.7,2.3,81,0.00,BKN,,0.00,WeatherDisplay:10.37,2013-01-20 09:19:00,
2013-01-20 04:24:00,30.4,25.6,29.70,SSW,204,1.3,5.8,82,0.00,BKN,,0.00,WeatherDisplay:10.37,2013-01-20 09:24:00,
2013-01-20 04:29:00,30.4,25.6,29.70,SSW,203,0.8,2.3,82,0.00,BKN,,0.00,WeatherDisplay:10.37,2013-01-20 09:29:00,
2013-01-20 04:34:00,30.1,25.3,29.70,SE,135,0.1,1.1,82,0.00,BKN,,0.00,WeatherDisplay:10.37,2013-01-20 09:34:00,
2013-01-20 04:39:00,29.8,25.0,29.70,SE,144,0.8,1.1,82,0.00,BKN,,0.00,WeatherDisplay:10.37,2013-01-20 09:39:00,
2013-01-20 04:44:00,29.7,24.9,29.70,SSW,201,0.7,2.3,82,0.00,BKN,,0.00,WeatherDisplay:10.37,2013-01-20 09:44:00,
2013-01-20 04:49:00,29.4,24.6,29.70,SSW,200,0.5,2.3,82,0.00,BKN,,0.00,WeatherDisplay:10.37,2013-01-20 09:49:00,
2013-01-20 04:54:00,29.1,24.3,29.70,SSW,201,1.1,2.3,82,0.00,BKN,,0.00,WeatherDisplay:10.37,2013-01-20 09:54:00,
2013-01-20 04:59:00,29.0,24.5,29.68,SSW,201,1.2,2.3,83,0.00,BKN,,0.00,WeatherDisplay:10.37,2013-01-20 09:59:00,
2013-01-20 05:04:00,28.7,24.2,29.68,SSE,166,1.5,2.3,83,0.00,CLR,,0.00,WeatherDisplay:10.37,2013-01-20 10:04:00,
2013-01-20 05:09:00,28.5,24.0,29.68,South,170,2.4,3.5,83,0.00,CLR,,0.00,WeatherDisplay:10.37,2013-01-20 10:09:00,
2013-01-20 05:14:00,28.5,24.6,29.67,South,177,1.0,2.3,85,0.00,CLR,,0.00,WeatherDisplay:10.37,2013-01-20 10:14:00,
2013-01-20 05:19:00,28.5,24.6,29.67,SSW,209,2.0,5.8,85,0.00,CLR,,0.00,WeatherDisplay:10.37,2013-01-20 10:19:00,
2013-01-20 05:24:00,28.5,24.6,29.66,SW,225,1.8,5.8,85,0.00,CLR,,0.00,WeatherDisplay:10.37,2013-01-20 10:24:00,
2013-01-20 05:29:00,28.4,24.5,29.66,SW,235,0.6,1.1,85,0.00,CLR,,0.00,WeatherDisplay:10.37,2013-01-20 10:29:00,
2013-01-20 05:34:00,28.5,24.8,29.65,SSE,158,1.5,2.3,86,0.00,CLR,,0.00,WeatherDisplay:10.37,2013-01-20 10:34:00,
2013-01-20 05:39:00,28.4,24.7,29.65,South,183,0.9,4.6,86,0.00,CLR,,0.00,WeatherDisplay:10.37,2013-01-20 10:39:00,
2013-01-20 05:44:00,28.4,24.7,29.65,South,189,1.5,2.3,86,0.00,CLR,,0.00,WeatherDisplay:10.37,2013-01-20 10:44:00,
2013-01-20 05:49:00,28.4,25.0,29.65,SSW,197,1.1,2.3,87,0.00,CLR,,0.00,WeatherDisplay:10.37,2013-01-20 10:49:00,
2013-01-20 05:54:00,28.4,25.0,29.64,SSW,207,2.5,4.6,87,0.00,CLR,,0.00,WeatherDisplay:10.37,2013-01-20 10:54:00,
2013-01-20 05:59:00,28.5,25.1,29.64,SSW,201,2.0,5.8,87,0.00,CLR,,0.00,WeatherDisplay:10.37,2013-01-20 10:59:00,
2013-01-20 06:04:00,28.5,25.1,29.64,SSW,200,2.2,4.6,87,0.00,CLR,,0.00,WeatherDisplay:10.37,2013-01-20 11:04:00,
2013-01-20 06:09:00,28.5,25.1,29.64,SSW,196,1.7,3.5,87,0.00,CLR,,0.00,WeatherDisplay:10.37,2013-01-20 11:09:00,
2013-01-20 06:14:00,28.7,25.6,29.63,SSW,210,2.1,3.5,88,0.00,CLR,,0.00,WeatherDisplay:10.37,2013-01-20 11:14:00,
2013-01-20 06:19:00,28.8,25.7,29.63,South,186,1.2,3.5,88,0.00,CLR,,0.00,WeatherDisplay:10.37,2013-01-20 11:19:00,
2013-01-20 06:24:00,29.0,25.9,29.62,SSW,192,1.8,2.3,88,0.00,CLR,,0.00,WeatherDisplay:10.37,2013-01-20 11:24:00,
2013-01-20 06:29:00,29.0,25.6,29.61,SSW,197,1.3,4.6,87,0.00,CLR,,0.00,WeatherDisplay:10.37,2013-01-20 11:29:00,
2013-01-20 06:34:00,29.1,25.7,29.61,SW,214,2.3,6.9,87,0.00,CLR,,0.00,WeatherDisplay:10.37,2013-01-20 11:34:00,
2013-01-20 06:39:00,29.1,25.7,29.61,SW,228,3.3,5.8,87,0.00,CLR,,0.00,WeatherDisplay:10.37,2013-01-20 11:39:00,
2013-01-20 06:44:00,29.1,25.7,29.61,SSW,207,1.5,4.6,87,0.00,CLR,,0.00,WeatherDisplay:10.37,2013-01-20 11:44:00,
2013-01-20 06:49:00,29.2,25.8,29.61,SSW,204,2.0,3.5,87,0.00,CLR,,0.00,WeatherDisplay:10.37,2013-01-20 11:49:00,
2013-01-20 06:54:00,29.5,26.1,29.61,SW,214,1.5,3.5,87,0.00,CLR,,0.00,WeatherDisplay:10.37,2013-01-20 11:54:00,
2013-01-20 06:59:00,29.8,26.1,29.60,SSW,209,2.7,11.5,86,0.00,CLR,,0.00,WeatherDisplay:10.37,2013-01-20 11:59:00,
2013-01-20 07:04:00,30.4,26.7,29.60,SW,223,3.7,6.0,86,0.00,CLR,,0.00,WeatherDisplay:10.37,2013-01-20 12:04:00,
2013-01-20 07:09:00,30.9,26.6,29.60,SSW,193,3.1,6.9,84,0.00,CLR,,0.00,WeatherDisplay:10.37,2013-01-20 12:09:00,
2013-01-20 07:14:00,31.3,26.7,29.59,SSW,197,3.4,11.5,83,0.00,CLR,,0.00,WeatherDisplay:10.37,2013-01-20 12:14:00,
2013-01-20 07:19:00,31.6,26.7,29.59,SSE,159,5.5,10.4,82,0.00,CLR,,0.00,WeatherDisplay:10.37,2013-01-20 12:19:00,
2013-01-20 07:24:00,32.5,27.0,29.58,South,183,3.5,5.8,80,0.00,CLR,,0.00,WeatherDisplay:10.37,2013-01-20 12:24:00,
2013-01-20 07:29:00,32.8,26.7,29.57,SW,216,4.9,10.0,78,0.00,CLR,,0.00,WeatherDisplay:10.37,2013-01-20 12:29:00,
2013-01-20 07:34:00,33.2,26.5,29.57,SSE,151,3.2,8.1,76,0.00,CLR,,0.00,WeatherDisplay:10.37,2013-01-20 12:34:00,
2013-01-20 07:39:00,33.5,26.4,29.57,SSW,209,3.5,10.4,75,0.00,CLR,,0.00,WeatherDisplay:10.37,2013-01-20 12:39:00,
2013-01-20 07:44:00,33.8,26.4,29.57,SSW,194,4.4,8.1,74,0.00,CLR,,0.00,WeatherDisplay:10.37,2013-01-20 12:44:00,
2013-01-20 07:49:00,33.8,26.4,29.57,SSW,209,3.0,6.9,74,0.00,CLR,,0.00,WeatherDisplay:10.37,2013-01-20 12:49:00,
2013-01-20 07:54:00,34.0,26.6,29.57,SSW,207,8.0,16.1,74,0.00,CLR,,0.00,WeatherDisplay:10.37,2013-01-20 12:54:00,
2013-01-20 07:59:00,34.1,26.3,29.57,SSW,200,2.3,5.8,73,0.00,CLR,,0.00,WeatherDisplay:10.37,2013-01-20 12:59:00,
2013-01-20 08:04:00,34.3,26.5,29.57,SSW,211,5.0,11.5,73,0.00,CLR,,0.00,WeatherDisplay:10.37,2013-01-20 13:04:00,
2013-01-20 08:09:00,34.4,26.6,29.57,SSW,210,2.0,5.8,73,0.00,CLR,,0.00,WeatherDisplay:10.37,2013-01-20 13:09:00,
2013-01-20 08:14:00,34.7,26.6,29.57,SSE,168,2.7,5.8,72,0.00,CLR,,0.00,WeatherDisplay:10.37,2013-01-20 13:14:00,
2013-01-20 08:19:00,35.2,26.7,29.57,South,175,1.8,7.0,71,0.00,CLR,,0.00,WeatherDisplay:10.37,2013-01-20 13:19:00,
2013-01-20 08:24:00,35.7,26.9,29.57,South,189,4.2,11.5,70,0.00,CLR,,0.00,WeatherDisplay:10.37,2013-01-20 13:24:00,
2013-01-20 08:29:00,36.5,27.3,29.57,SSW,213,8.8,13.8,69,0.00,CLR,,0.00,WeatherDisplay:10.37,2013-01-20 13:29:00,
2013-01-20 08:34:00,37.3,27.3,29.57,SSE,155,0.8,2.3,67,0.00,CLR,,0.00,WeatherDisplay:10.37,2013-01-20 13:34:00,
2013-01-20 08:39:00,38.0,27.3,29.57,SSW,211,3.3,5.0,65,0.00,CLR,,0.00,WeatherDisplay:10.37,2013-01-20 13:39:00,
2013-01-20 08:44:00,38.9,27.8,29.57,SSW,213,5.0,10.4,64,0.00,CLR,,0.00,WeatherDisplay:10.37,2013-01-20 13:44:00,
2013-01-20 08:49:00,39.5,27.5,29.57,South,177,2.5,5.8,62,0.00,CLR,,0.00,WeatherDisplay:10.37,2013-01-20 13:49:00,
2013-01-20 08:54:00,40.2,27.8,29.57,SSW,204,2.6,11.5,61,0.00,CLR,,0.00,WeatherDisplay:10.37,2013-01-20 13:54:00,
2013-01-20 08:59:00,40.8,28.0,29.57,SSW,194,4.4,11.5,60,0.00,CLR,,0.00,WeatherDisplay:10.37,2013-01-20 13:59:00,
2013-01-20 09:04:00,41.8,28.1,29.57,SW,214,3.6,7.0,58,0.00,CLR,,0.00,WeatherDisplay:10.37,2013-01-20 14:04:00,
2013-01-20 09:09:00,42.3,28.1,29.57,WSW,244,1.6,6.9,57,0.00,CLR,,0.00,WeatherDisplay:10.37,2013-01-20 14:09:00,
2013-01-20 09:14:00,42.8,27.7,29.56,SSE,158,5.0,6.9,55,0.00,CLR,,0.00,WeatherDisplay:10.37,2013-01-20 14:14:00,
2013-01-20 09:19:00,43.2,28.1,29.56,South,185,2.5,3.5,55,0.00,CLR,,0.00,WeatherDisplay:10.37,2013-01-20 14:19:00,
2013-01-20 09:24:00,43.8,28.7,29.55,WSW,242,1.6,4.6,55,0.00,CLR,,0.00,WeatherDisplay:10.37,2013-01-20 14:24:00,
2013-01-20 09:29:00,44.2,27.7,29.55,SSE,152,5.1,11.5,52,0.00,CLR,,0.00,WeatherDisplay:10.37,2013-01-20 14:29:00,
2013-01-20 09:34:00,44.6,28.0,29.55,South,180,3.6,6.9,52,0.00,CLR,,0.00,WeatherDisplay:10.37,2013-01-20 14:34:00,
2013-01-20 09:39:00,45.1,28.0,29.55,WSW,240,3.5,6.9,51,0.00,CLR,,0.00,WeatherDisplay:10.37,2013-01-20 14:39:00,
2013-01-20 09:44:00,45.7,28.1,29.54,SSW,194,5.4,9.2,50,0.00,CLR,,0.00,WeatherDisplay:10.37,2013-01-20 14:44:00,
2013-01-20 09:49:00,46.2,28.1,29.54,SSW,211,3.5,6.9,49,0.00,CLR,,0.00,WeatherDisplay:10.37,2013-01-20 14:49:00,
2013-01-20 09:54:00,46.7,27.5,29.53,SSW,204,5.4,8.1,47,0.00,CLR,,0.00,WeatherDisplay:10.37,2013-01-20 14:54:00,
2013-01-20 09:59:00,47.1,27.4,29.53,South,187,6.7,12.7,46,0.00,CLR,,0.00,WeatherDisplay:10.37,2013-01-20 14:59:00,
2013-01-20 10:04:00,47.4,27.6,29.53,SSW,209,7.1,11.5,46,0.00,CLR,,0.00,WeatherDisplay:10.37,2013-01-20 15:04:00,
2013-01-20 10:09:00,47.7,26.8,29.53,WSW,244,7.8,12.7,44,0.00,CLR,,0.00,WeatherDisplay:10.37,2013-01-20 15:09:00,
2013-01-20 10:14:00,48.0,27.1,29.53,SW,221,2.1,5.8,44,0.00,CLR,,0.00,WeatherDisplay:10.37,2013-01-20 15:14:00,
2013-01-20 10:19:00,48.5,27.6,29.53,SSW,211,7.4,11.5,44,0.00,CLR,,0.00,WeatherDisplay:10.37,2013-01-20 15:19:00,
2013-01-20 10:24:00,48.9,26.8,29.53,South,182,9.4,19.6,42,0.00,CLR,,0.00,WeatherDisplay:10.37,2013-01-20 15:24:00,
2013-01-20 10:29:00,49.2,26.5,29.53,South,169,10.9,13.8,41,0.00,CLR,,0.00,WeatherDisplay:10.37,2013-01-20 15:29:00,
2013-01-20 10:34:00,49.1,27.0,29.52,SW,221,9.9,21.9,42,0.00,CLR,,0.00,WeatherDisplay:10.37,2013-01-20 15:34:00,
2013-01-20 10:39:00,48.8,26.7,29.52,SSW,206,6.7,12.7,42,0.00,CLR,,0.00,WeatherDisplay:10.37,2013-01-20 15:39:00,
2013-01-20 10:44:00,48.6,27.1,29.52,SW,230,4.8,11.5,43,0.00,CLR,,0.00,WeatherDisplay:10.37,2013-01-20 15:44:00,
2013-01-20 10:49:00,48.6,26.5,29.52,SW,217,8.1,8.1,42,0.00,CLR,,0.00,WeatherDisplay:10.37,2013-01-20 15:49:00,
2013-01-20 10:54:00,48.8,26.7,29.51,SSW,200,3.8,11.5,42,0.00,CLR,,0.00,WeatherDisplay:10.37,2013-01-20 15:54:00,
2013-01-20 10:59:00,48.8,26.1,29.51,SW,216,5.4,11.5,41,0.00,CLR,,0.00,WeatherDisplay:10.37,2013-01-20 15:59:00,
2013-01-20 11:04:00,49.1,26.4,29.51,SSW,210,6.4,11.5,41,0.00,CLR,,0.00,WeatherDisplay:10.37,2013-01-20 16:04:00,
2013-01-20 11:09:00,49.6,26.8,29.51,SW,230,9.3,20.7,41,0.00,CLR,,0.00,WeatherDisplay:10.37,2013-01-20 16:09:00,
2013-01-20 11:14:00,49.8,25.8,29.51,West,266,11.7,24.2,39,0.00,CLR,,0.00,WeatherDisplay:10.37,2013-01-20 16:14:00,
2013-01-20 11:19:00,49.5,26.1,29.51,SW,224,11.3,21.9,40,0.00,CLR,,0.00,WeatherDisplay:10.37,2013-01-20 16:19:00,
2013-01-20 11:24:00,48.9,26.2,29.51,SW,224,8.3,14.0,41,0.00,CLR,,0.00,WeatherDisplay:10.37,2013-01-20 16:24:00,
2013-01-20 11:29:00,48.3,26.2,29.51,SSW,207,4.0,8.0,42,0.00,CLR,,0.00,WeatherDisplay:10.37,2013-01-20 16:29:00,
2013-01-20 11:34:00,48.2,26.2,29.51,SSW,206,9.7,16.1,42,0.00,CLR,,0.00,WeatherDisplay:10.37,2013-01-20 16:34:00,
2013-01-20 11:39:00,47.7,25.7,29.51,SSW,203,12.7,24.2,42,0.00,CLR,,0.00,WeatherDisplay:10.37,2013-01-20 16:39:00,
2013-01-20 11:44:00,47.4,26.0,29.52,SW,223,15.4,22.0,43,0.00,CLR,,0.00,WeatherDisplay:10.37,2013-01-20 16:44:00,
2013-01-20 11:49:00,46.8,26.6,29.52,WSW,257,5.8,20.7,45,0.00,CLR,,0.00,WeatherDisplay:10.37,2013-01-20 16:49:00,
2013-01-20 11:54:00,46.5,26.3,29.52,West,261,3.0,11.5,45,0.00,CLR,,0.00,WeatherDisplay:10.37,2013-01-20 16:54:00,
2013-01-20 11:59:00,46.1,26.4,29.52,SSW,213,7.1,11.5,46,0.00,CLR,,0.00,WeatherDisplay:10.37,2013-01-20 16:59:00,
2013-01-20 12:04:00,45.9,26.3,29.52,WSW,247,4.8,10.4,46,0.00,OVC,,0.00,WeatherDisplay:10.37,2013-01-20 17:04:00,
2013-01-20 12:09:00,45.7,26.6,29.52,WSW,247,3.5,8.1,47,0.00,OVC,,0.00,WeatherDisplay:10.37,2013-01-20 17:09:00,
2013-01-20 12:14:00,45.4,26.8,29.53,WNW,290,3.9,10.4,48,0.00,OVC,,0.00,WeatherDisplay:10.37,2013-01-20 17:14:00,
2013-01-20 12:19:00,45.1,27.1,29.53,WSW,258,5.1,15.0,49,0.00,OVC,,0.00,WeatherDisplay:10.37,2013-01-20 17:19:00,
2013-01-20 12:24:00,44.8,27.3,29.54,SW,230,12.5,12.7,50,0.00,OVC,,0.00,WeatherDisplay:10.37,2013-01-20 17:24:00,
2013-01-20 12:29:00,44.3,28.2,29.55,West,266,15.3,24.0,53,0.00,OVC,,0.00,WeatherDisplay:10.37,2013-01-20 17:29:00,
2013-01-20 12:34:00,43.9,28.3,29.55,SW,228,10.6,17.3,54,0.00,OVC,,0.00,WeatherDisplay:10.37,2013-01-20 17:34:00,
2013-01-20 12:39:00,43.8,28.7,29.55,WSW,241,3.9,8.1,55,0.00,OVC,,0.00,WeatherDisplay:10.37,2013-01-20 17:39:00,
2013-01-20 12:44:00,43.5,28.8,29.56,West,266,7.2,11.5,56,0.00,OVC,,0.00,WeatherDisplay:10.37,2013-01-20 17:44:00,
2013-01-20 12:49:00,43.3,28.6,29.56,West,268,2.7,13.8,56,0.00,OVC,,0.00,WeatherDisplay:10.37,2013-01-20 17:49:00,
2013-01-20 12:54:00,43.2,29.0,29.57,NW,306,10.2,15.0,57,0.00,OVC,,0.00,WeatherDisplay:10.37,2013-01-20 17:54:00,
2013-01-20 12:59:00,43.0,26.6,29.57,West,281,13.7,25.3,52,0.00,OVC,,0.00,WeatherDisplay:10.37,2013-01-20 17:59:00,
2013-01-20 13:04:00,42.9,25.5,29.57,WNW,302,16.0,20.7,50,0.00,OVC,,0.00,WeatherDisplay:10.37,2013-01-20 18:04:00,
2013-01-20 13:09:00,42.8,22.4,29.57,NW,306,20.7,36.8,44,0.00,OVC,,0.00,WeatherDisplay:10.37,2013-01-20 18:09:00,
2013-01-20 13:14:00,42.8,22.4,29.57,WNW,288,14.6,21.9,44,0.00,OVC,,0.00,WeatherDisplay:10.37,2013-01-20 18:14:00,
2013-01-20 13:19:00,42.8,22.9,29.57,NW,307,6.8,21.9,45,0.00,OVC,,0.00,WeatherDisplay:10.37,2013-01-20 18:19:00,
2013-01-20 13:24:00,42.6,22.7,29.57,West,259,3.2,11.5,45,0.00,OVC,,0.00,WeatherDisplay:10.37,2013-01-20 18:24:00,
2013-01-20 13:29:00,42.6,22.2,29.57,NW,307,4.3,6.9,44,0.00,OVC,,0.00,WeatherDisplay:10.37,2013-01-20 18:29:00,
2013-01-20 13:34:00,42.6,22.2,29.57,West,278,2.3,12.7,44,0.00,OVC,,0.00,WeatherDisplay:10.37,2013-01-20 18:34:00,
2013-01-20 13:39:00,42.6,21.1,29.57,West,278,9.1,14.0,42,0.00,OVC,,0.00,WeatherDisplay:10.37,2013-01-20 18:39:00,
2013-01-20 13:44:00,42.6,21.1,29.57,WNW,290,14.5,19.6,42,0.00,OVC,,0.00,WeatherDisplay:10.37,2013-01-20 18:44:00,
2013-01-20 13:49:00,42.5,20.4,29.57,West,278,12.2,13.8,41,0.00,OVC,,0.00,WeatherDisplay:10.37,2013-01-20 18:49:00,
2013-01-20 13:54:00,42.5,21.0,29.58,West,278,7.3,16.0,42,0.00,OVC,,0.00,WeatherDisplay:10.37,2013-01-20 18:54:00,
2013-01-20 13:59:00,42.5,19.3,29.57,NNW,333,6.6,18.0,39,0.00,OVC,,0.00,WeatherDisplay:10.37,2013-01-20 18:59:00,
2013-01-20 14:04:00,42.5,19.8,29.58,West,259,5.2,8.0,40,0.00,CLR,,0.00,WeatherDisplay:10.37,2013-01-20 19:04:00,
2013-01-20 14:09:00,42.5,18.6,29.58,WNW,286,10.4,19.0,38,0.00,CLR,,0.00,WeatherDisplay:10.37,2013-01-20 19:09:00,
2013-01-20 14:14:00,42.6,16.8,29.58,WNW,286,12.6,26.5,35,0.00,CLR,,0.00,WeatherDisplay:10.37,2013-01-20 19:14:00,
2013-01-20 14:19:00,42.8,15.6,29.58,WSW,240,11.5,19.6,33,0.00,CLR,,0.00,WeatherDisplay:10.37,2013-01-20 19:19:00,
2013-01-20 14:24:00,42.9,13.5,29.58,West,279,10.3,19.6,30,0.00,CLR,,0.00,WeatherDisplay:10.37,2013-01-20 19:24:00,
2013-01-20 14:29:00,43.0,12.1,29.58,WSW,240,13.7,24.2,28,0.00,CLR,,0.00,WeatherDisplay:10.37,2013-01-20 19:29:00,
2013-01-20 14:34:00,43.3,12.3,29.58,West,276,7.7,16.1,28,0.00,CLR,,0.00,WeatherDisplay:10.37,2013-01-20 19:34:00,
2013-01-20 14:39:00,43.8,11.9,29.58,WSW,251,10.6,24.2,27,0.00,CLR,,0.00,WeatherDisplay:10.37,2013-01-20 19:39:00,
2013-01-20 14:44:00,43.8,11.1,29.59,WSW,237,9.2,31.1,26,0.00,CLR,,0.00,WeatherDisplay:10.37,2013-01-20 19:44:00,
2013-01-20 14:49:00,43.6,10.9,29.59,WNW,288,10.2,16.1,26,0.00,CLR,,0.00,WeatherDisplay:10.37,2013-01-20 19:49:00,
2013-01-20 14:54:00,43.3,10.7,29.60,WNW,282,14.0,19.6,26,0.00,CLR,,0.00,WeatherDisplay:10.37,2013-01-20 19:54:00,
2013-01-20 14:59:00,43.2,11.4,29.61,WNW,288,9.1,20.7,27,0.00,CLR,,0.00,WeatherDisplay:10.37,2013-01-20 19:59:00,
2013-01-20 15:04:00,43.2,10.6,29.62,West,266,15.5,25.0,26,0.00,CLR,,0.00,WeatherDisplay:10.37,2013-01-20 20:04:00,
2013-01-20 15:09:00,42.9,11.2,29.62,West,269,17.3,28.8,27,0.00,CLR,,0.00,WeatherDisplay:10.37,2013-01-20 20:09:00,
2013-01-20 15:14:00,42.6,10.9,29.62,WSW,255,13.8,32.2,27,0.00,CLR,,0.00,WeatherDisplay:10.37,2013-01-20 20:14:00,
2013-01-20 15:19:00,42.3,10.6,29.62,WSW,238,4.7,13.8,27,0.00,CLR,,0.00,WeatherDisplay:10.37,2013-01-20 20:19:00,
2013-01-20 15:24:00,42.2,11.4,29.63,WNW,286,14.5,25.3,28,0.00,CLR,,0.00,WeatherDisplay:10.37,2013-01-20 20:24:00,
2013-01-20 15:29:00,42.0,10.4,29.63,WNW,289,5.1,11.5,27,0.00,CLR,,0.00,WeatherDisplay:10.37,2013-01-20 20:29:00,
2013-01-20 15:34:00,41.9,11.9,29.63,West,262,6.6,11.5,29,0.00,CLR,,0.00,WeatherDisplay:10.37,2013-01-20 20:34:00,
2013-01-20 15:39:00,41.5,12.3,29.63,WSW,258,9.5,13.8,30,0.00,CLR,,0.00,WeatherDisplay:10.37,2013-01-20 20:39:00,
2013-01-20 15:44:00,41.0,12.6,29.64,NNW,348,12.6,12.7,31,0.00,CLR,,0.00,WeatherDisplay:10.37,2013-01-20 20:44:00,
2013-01-20 15:49:00,40.5,12.2,29.64,WNW,297,9.6,18.4,31,0.00,CLR,,0.00,WeatherDisplay:10.37,2013-01-20 20:49:00,
2013-01-20 15:54:00,39.9,11.7,29.66,West,278,19.1,27.0,31,0.00,CLR,,0.00,WeatherDisplay:10.37,2013-01-20 20:54:00,
2013-01-20 15:59:00,39.6,12.1,29.67,WSW,258,17.0,20.7,32,0.00,CLR,,0.00,WeatherDisplay:10.37,2013-01-20 20:59:00,
2013-01-20 16:04:00,39.3,12.6,29.67,West,264,14.3,21.9,33,0.00,CLR,,0.00,WeatherDisplay:10.37,2013-01-20 21:04:00,
2013-01-20 16:09:00,38.9,11.5,29.67,WNW,290,18.7,30.0,32,0.00,CLR,,0.00,WeatherDisplay:10.37,2013-01-20 21:09:00,
2013-01-20 16:14:00,38.6,11.9,29.69,WNW,286,12.4,17.3,33,0.00,CLR,,0.00,WeatherDisplay:10.37,2013-01-20 21:14:00,
2013-01-20 16:19:00,38.3,11.7,29.69,WNW,302,7.9,17.3,33,0.00,CLR,,0.00,WeatherDisplay:10.37,2013-01-20 21:19:00,
2013-01-20 16:24:00,38.0,12.7,29.70,WNW,292,10.5,18.4,35,0.00,CLR,,0.00,WeatherDisplay:10.37,2013-01-20 21:24:00,
2013-01-20 16:29:00,37.7,12.5,29.71,WNW,299,20.7,28.8,35,0.00,CLR,,0.00,WeatherDisplay:10.37,2013-01-20 21:29:00,
2013-01-20 16:34:00,37.3,11.5,29.70,West,264,22.5,30.0,34,0.00,CLR,,0.00,WeatherDisplay:10.37,2013-01-20 21:34:00,
2013-01-20 16:39:00,36.9,11.1,29.70,West,271,13.2,26.5,34,0.00,CLR,,0.00,WeatherDisplay:10.37,2013-01-20 21:39:00,
2013-01-20 16:44:00,36.5,10.7,29.73,West,272,26.4,38.0,34,0.00,CLR,,0.00,WeatherDisplay:10.37,2013-01-20 21:44:00,
2013-01-20 16:49:00,36.0,11.6,29.73,WNW,300,11.7,20.7,36,0.00,CLR,,0.00,WeatherDisplay:10.37,2013-01-20 21:49:00,
2013-01-20 16:54:00,35.6,11.9,29.73,West,262,13.1,19.6,37,0.00,CLR,,0.00,WeatherDisplay:10.37,2013-01-20 21:54:00,
2013-01-20 16:59:00,35.3,11.0,29.74,NNW,331,9.7,19.6,36,0.00,CLR,,0.00,WeatherDisplay:10.37,2013-01-20 21:59:00,
2013-01-20 17:04:00,35.0,11.3,29.74,WSW,247,13.0,25.0,37,0.00,CLR,,0.00,WeatherDisplay:10.37,2013-01-20 22:04:00,
2013-01-20 17:09:00,34.7,11.0,29.74,WNW,286,18.0,28.8,37,0.00,CLR,,0.00,WeatherDisplay:10.37,2013-01-20 22:09:00,
2013-01-20 17:14:00,34.4,11.4,29.74,NW,305,10.5,20.7,38,0.00,CLR,,0.00,WeatherDisplay:10.37,2013-01-20 22:14:00,
2013-01-20 17:19:00,34.3,11.3,29.74,West,271,15.0,26.5,38,0.00,CLR,,0.00,WeatherDisplay:10.37,2013-01-20 22:19:00,
2013-01-20 17:24:00,34.1,10.5,29.75,SSW,201,13.2,21.9,37,0.00,CLR,,0.00,WeatherDisplay:10.37,2013-01-20 22:24:00,
2013-01-20 17:29:00,33.8,11.4,29.76,West,266,9.8,13.8,39,0.00,CLR,,0.00,WeatherDisplay:10.37,2013-01-20 22:29:00,
2013-01-20 17:34:00,33.5,10.6,29.76,NW,309,16.1,22.0,38,0.00,CLR,,0.00,WeatherDisplay:10.37,2013-01-20 22:34:00,
2013-01-20 17:39:00,33.4,10.5,29.76,WNW,296,8.6,19.6,38,0.00,CLR,,0.00,WeatherDisplay:10.37,2013-01-20 22:39:00,
2013-01-20 17:44:00,33.2,10.3,29.76,WSW,254,7.9,16.1,38,0.00,CLR,,0.00,WeatherDisplay:10.37,2013-01-20 22:44:00,
2013-01-20 17:49:00,33.1,10.8,29.76,West,275,9.4,12.0,39,0.00,CLR,,0.00,WeatherDisplay:10.37,2013-01-20 22:49:00,
2013-01-20 17:54:00,32.8,10.5,29.76,WNW,299,11.5,17.3,39,0.00,CLR,,0.00,WeatherDisplay:10.37,2013-01-20 22:54:00,
2013-01-20 17:59:00,32.6,10.9,29.77,NW,316,6.0,18.4,40,0.00,CLR,,0.00,WeatherDisplay:10.37,2013-01-20 22:59:00,
2013-01-20 18:04:00,32.5,10.8,29.77,West,266,4.5,19.6,40,0.00,FEW,,0.00,WeatherDisplay:10.37,2013-01-20 23:04:00,
2013-01-20 18:09:00,32.4,11.3,29.77,NW,317,10.3,18.4,41,0.00,FEW,,0.00,WeatherDisplay:10.37,2013-01-20 23:09:00,
2013-01-20 18:14:00,32.2,10.5,29.78,West,259,10.8,25.3,40,0.00,FEW,,0.00,WeatherDisplay:10.37,2013-01-20 23:14:00,
2013-01-20 18:20:00,32.1,10.5,29.78,WNW,282,7.7,12.0,40,0.00,FEW,,0.00,WeatherDisplay:10.37,2013-01-20 23:20:00,
2013-01-20 18:25:00,31.9,11.4,29.78,WNW,282,11.5,15.0,42,0.00,FEW,,0.00,WeatherDisplay:10.37,2013-01-20 23:25:00,
2013-01-20 18:30:00,31.8,11.8,29.79,SW,235,8.9,19.6,43,0.00,FEW,,0.00,WeatherDisplay:10.37,2013-01-20 23:30:00,
2013-01-20 18:35:00,31.5,12.1,29.79,West,261,10.8,17.3,44,0.00,FEW,,0.00,WeatherDisplay:10.37,2013-01-20 23:35:00,
2013-01-20 18:40:00,31.3,11.4,29.79,WNW,292,9.0,15.0,43,0.00,FEW,,0.00,WeatherDisplay:10.37,2013-01-20 23:40:00,
2013-01-20 18:45:00,31.0,11.1,29.80,NW,305,7.7,16.0,43,0.00,FEW,,0.00,WeatherDisplay:10.37,2013-01-20 23:45:00,
2013-01-20 18:50:00,30.9,10.5,29.80,SW,235,6.9,11.5,42,0.00,FEW,,0.00,WeatherDisplay:10.37,2013-01-20 23:50:00,
2013-01-20 18:55:00,30.6,9.1,29.80,NW,309,11.4,17.3,40,0.00,FEW,,0.00,WeatherDisplay:10.37,2013-01-20 23:55:00,
2013-01-20 19:00:00,30.4,8.9,29.80,West,264,9.0,24.0,40,0.00,FEW,,0.00,WeatherDisplay:10.37,2013-01-21 00:00:00,
2013-01-20 19:05:00,30.3,8.8,29.80,West,276,9.6,19.6,40,0.00,SCT,,0.00,WeatherDisplay:10.37,2013-01-21 00:05:00,
2013-01-20 19:10:00,30.1,9.2,29.80,WSW,257,6.2,11.5,41,0.00,SCT,,0.00,WeatherDisplay:10.37,2013-01-21 00:10:00,
2013-01-20 19:15:00,29.8,9.5,29.81,West,272,4.8,8.1,42,0.00,SCT,,0.00,WeatherDisplay:10.37,2013-01-21 00:15:00,
2013-01-20 19:20:00,29.5,8.7,29.81,West,281,6.2,12.0,41,0.00,SCT,,0.00,WeatherDisplay:10.37,2013-01-21 00:20:00,
2013-01-20 19:25:00,29.5,9.2,29.81,WNW,282,3.9,11.5,42,0.00,SCT,,0.00,WeatherDisplay:10.37,2013-01-21 00:25:00,
2013-01-20 19:30:00,29.4,8.6,29.81,West,279,7.0,21.0,41,0.00,SCT,,0.00,WeatherDisplay:10.37,2013-01-21 00:30:00,
2013-01-20 19:35:00,29.4,9.1,29.81,WNW,297,4.8,20.7,42,0.00,SCT,,0.00,WeatherDisplay:10.37,2013-01-21 00:35:00,
2013-01-20 19:40:00,29.1,8.3,29.81,West,262,5.1,8.1,41,0.00,SCT,,0.00,WeatherDisplay:10.37,2013-01-21 00:40:00,
2013-01-20 19:45:00,29.1,8.8,29.82,WNW,285,13.5,13.5,42,0.00,SCT,,0.00,WeatherDisplay:10.37,2013-01-21 00:45:00,
2013-01-20 19:50:00,29.0,8.2,29.82,WNW,302,3.8,9.2,41,0.00,SCT,,0.00,WeatherDisplay:10.37,2013-01-21 00:50:00,
2013-01-20 19:55:00,29.0,8.7,29.82,WNW,300,7.4,12.0,42,0.00,SCT,,0.00,WeatherDisplay:10.37,2013-01-21 00:55:00,
2013-01-20 20:00:00,29.0,8.7,29.83,West,278,3.0,22.0,42,0.00,SCT,,0.00,WeatherDisplay:10.37,2013-01-21 01:00:00,
2013-01-20 20:05:00,28.8,8.6,29.83,WSW,240,8.8,11.0,42,0.00,SCT,,0.00,WeatherDisplay:10.37,2013-01-21 01:05:00,
2013-01-20 20:10:00,28.8,8.6,29.83,WNW,283,3.5,11.5,42,0.00,SCT,,0.00,WeatherDisplay:10.37,2013-01-21 01:10:00,
2013-01-20 20:15:00,28.5,8.3,29.83,WNW,300,3.9,12.7,42,0.00,SCT,,0.00,WeatherDisplay:10.37,2013-01-21 01:15:00,
2013-01-20 20:20:00,28.5,8.8,29.83,West,264,4.3,11.5,43,0.00,SCT,,0.00,WeatherDisplay:10.37,2013-01-21 01:20:00,
2013-01-20 20:25:00,28.4,8.2,29.83,WSW,244,3.0,6.9,42,0.00,SCT,,0.00,WeatherDisplay:10.37,2013-01-21 01:25:00,
2013-01-20 20:30:00,28.4,9.2,29.83,West,272,8.0,18.0,44,0.00,SCT,,0.00,WeatherDisplay:10.37,2013-01-21 01:30:00,
2013-01-20 20:35:00,28.4,8.7,29.84,WNW,289,4.2,5.8,43,0.00,SCT,,0.00,WeatherDisplay:10.37,2013-01-21 01:35:00,
2013-01-20 20:40:00,28.4,8.7,29.84,NW,313,7.7,11.5,43,0.00,SCT,,0.00,WeatherDisplay:10.37,2013-01-21 01:40:00,
2013-01-20 20:45:00,28.4,8.7,29.84,West,273,10.9,18.0,43,0.00,SCT,,0.00,WeatherDisplay:10.37,2013-01-21 01:45:00,
2013-01-20 20:50:00,28.4,9.2,29.84,WNW,293,10.4,19.6,44,0.00,SCT,,0.00,WeatherDisplay:10.37,2013-01-21 01:50:00,
2013-01-20 20:55:00,28.4,9.2,29.84,NW,313,12.6,17.3,44,0.00,SCT,,0.00,WeatherDisplay:10.37,2013-01-21 01:55:00,
2013-01-20 21:00:00,28.5,9.3,29.85,West,271,10.0,21.0,44,0.00,SCT,,0.00,WeatherDisplay:10.37,2013-01-21 02:00:00,
2013-01-20 21:05:00,28.5,9.8,29.85,West,269,10.9,18.4,45,0.00,OVC,,0.00,WeatherDisplay:10.37,2013-01-21 02:05:00,
2013-01-20 21:10:00,28.7,10.0,29.85,WNW,296,8.9,12.7,45,0.00,OVC,,0.00,WeatherDisplay:10.37,2013-01-21 02:10:00,
2013-01-20 21:15:00,28.7,10.5,29.85,SW,228,11.6,12.0,46,0.00,OVC,,0.00,WeatherDisplay:10.37,2013-01-21 02:15:00,
2013-01-20 21:20:00,28.7,10.0,29.85,WNW,296,7.2,10.4,45,0.00,OVC,,0.00,WeatherDisplay:10.37,2013-01-21 02:20:00,
2013-01-20 21:25:00,28.7,11.0,29.85,WNW,300,12.1,18.4,47,0.00,OVC,,0.00,WeatherDisplay:10.37,2013-01-21 02:25:00,
2013-01-20 21:30:00,28.7,11.0,29.86,WNW,286,5.0,20.0,47,0.00,OVC,,0.00,WeatherDisplay:10.37,2013-01-21 02:30:00,
2013-01-20 21:35:00,28.7,10.5,29.86,WNW,282,13.8,13.8,46,0.00,OVC,,0.00,WeatherDisplay:10.37,2013-01-21 02:35:00,
2013-01-20 21:40:00,28.7,11.0,29.86,WNW,300,8.6,11.5,47,0.00,OVC,,0.00,WeatherDisplay:10.37,2013-01-21 02:40:00,
2013-01-20 21:45:00,28.5,10.3,29.87,West,281,17.5,31.1,46,0.00,OVC,,0.00,WeatherDisplay:10.37,2013-01-21 02:45:00,
2013-01-20 21:50:00,28.2,10.0,29.87,WNW,292,9.1,19.6,46,0.00,OVC,,0.00,WeatherDisplay:10.37,2013-01-21 02:50:00,
2013-01-20 21:55:00,27.9,11.2,29.88,NW,320,10.4,14.0,49,0.00,OVC,,0.00,WeatherDisplay:10.37,2013-01-21 02:55:00,
2013-01-20 22:00:00,27.5,11.3,29.89,NW,308,15.0,31.0,50,0.00,OVC,,0.00,WeatherDisplay:10.37,2013-01-21 03:00:00,
2013-01-20 22:05:00,27.0,10.8,29.89,WNW,303,14.6,18.4,50,0.00,FEW,,0.00,WeatherDisplay:10.37,2013-01-21 03:05:00,
2013-01-20 22:10:00,26.7,10.5,29.89,NW,310,9.9,24.0,50,0.00,FEW,,0.00,WeatherDisplay:10.37,2013-01-21 03:10:00,
2013-01-20 22:15:00,26.4,9.8,29.90,NW,310,12.1,19.6,49,0.00,FEW,,0.00,WeatherDisplay:10.37,2013-01-21 03:15:00,
2013-01-20 22:20:00,26.3,9.2,29.90,WNW,289,8.1,16.1,48,0.00,FEW,,0.00,WeatherDisplay:10.37,2013-01-21 03:20:00,
2013-01-20 22:25:00,26.3,8.8,29.91,NW,313,10.8,16.1,47,0.00,FEW,,0.00,WeatherDisplay:10.37,2013-01-21 03:25:00,
2013-01-20 22:30:00,26.3,9.2,29.90,NW,324,10.0,24.0,48,0.00,FEW,,0.00,WeatherDisplay:10.37,2013-01-21 03:30:00,
2013-01-20 22:35:00,26.3,8.8,29.91,WNW,302,11.5,17.3,47,0.00,FEW,,0.00,WeatherDisplay:10.37,2013-01-21 03:35:00,
2013-01-20 22:40:00,26.3,8.8,29.91,WNW,282,10.3,14.0,47,0.00,FEW,,0.00,WeatherDisplay:10.37,2013-01-21 03:40:00,
2013-01-20 22:45:00,26.3,8.8,29.91,WNW,296,6.5,7.0,47,0.00,FEW,,0.00,WeatherDisplay:10.37,2013-01-21 03:45:00,
2013-01-20 22:50:00,26.1,8.1,29.91,NW,326,9.5,11.5,46,0.00,FEW,,0.00,WeatherDisplay:10.37,2013-01-21 03:50:00,
2013-01-20 22:55:00,26.1,8.1,29.91,NW,312,7.6,9.0,46,0.00,FEW,,0.00,WeatherDisplay:10.37,2013-01-21 03:55:00,
2013-01-20 23:00:00,26.0,7.0,29.91,NW,316,6.1,10.4,44,0.00,FEW,,0.00,WeatherDisplay:10.37,2013-01-21 04:00:00,
2013-01-20 23:05:00,25.8,6.3,29.91,NW,306,9.0,15.0,43,0.00,OVC,,0.00,WeatherDisplay:10.37,2013-01-21 04:05:00,
2013-01-20 23:10:00,25.8,5.8,29.91,WNW,293,11.1,16.1,42,0.00,OVC,,0.00,WeatherDisplay:10.37,2013-01-21 04:10:00,
2013-01-20 23:15:00,25.7,5.7,29.91,WNW,303,16.9,19.6,42,0.00,OVC,,0.00,WeatherDisplay:10.37,2013-01-21 04:15:00,
2013-01-20 23:20:00,25.7,5.7,29.91,WNW,283,10.9,16.1,42,0.00,OVC,,0.00,WeatherDisplay:10.37,2013-01-21 04:20:00,
2013-01-20 23:25:00,25.5,5.0,29.92,WNW,295,14.7,19.6,41,0.00,OVC,,0.00,WeatherDisplay:10.37,2013-01-21 04:25:00,
2013-01-20 23:30:00,25.5,5.6,29.92,NW,326,8.9,21.9,42,0.00,OVC,,0.00,WeatherDisplay:10.37,2013-01-21 04:30:00,
2013-01-20 23:35:00,25.4,5.5,29.91,WSW,254,8.1,13.0,42,0.00,OVC,,0.00,WeatherDisplay:10.37,2013-01-21 04:35:00,
2013-01-20 23:40:00,25.3,5.9,29.91,NW,310,7.6,11.5,43,0.00,OVC,,0.00,WeatherDisplay:10.37,2013-01-21 04:40:00,
2013-01-20 23:45:00,25.1,5.7,29.92,WNW,288,8.2,13.8,43,0.00,OVC,,0.00,WeatherDisplay:10.37,2013-01-21 04:45:00,
2013-01-20 23:50:00,25.1,5.2,29.92,WSW,251,9.4,16.1,42,0.00,OVC,,0.00,WeatherDisplay:10.37,2013-01-21 04:50:00,
2013-01-20 23:55:00,25.0,5.1,29.92,WNW,299,8.2,11.5,42,0.00,OVC,,0.00,WeatherDisplay:10.37,2013-01-21 04:55:00,